{"data":{"norad_id":60084,"intl_designator":"2024-114F","name":"KINEIS-1A","alt_names":[],"object_type":"PAYLOAD","status":"ACTIVE","operator":null,"country":"FR","launch_date":"2024-06-20","launch_site_code":"RLLB","launch_vehicle":null,"mission":null,"orbit_class":"UNKNOWN","rcs_meters":null,"size_class":null,"mass_kg":null,"dimensions":null,"purposes":[],"wikipedia_slug":null,"has_3d_model":false,"image_url":null,"decayed_at":null,"tle_current":{"epoch":"2026-09-22T23:43:06.174624Z","epoch_age_seconds":63619,"freshness":"FRESH","line1":"1 60084U 24114F   26265.98826591  .00000480  00000+0  69127-4 0  9999","line2":"2 60084  97.8901 287.9394 0004323 163.8143 196.3208 14.80740787121867","mean_motion":14.80740787,"eccentricity":0.0004323,"inclination_deg":97.8901,"raan_deg":287.9394,"arg_perigee_deg":163.8143,"mean_anomaly_deg":196.3208,"bstar":6.9127e-5,"rev_number":12186,"period_min":97.248621274049,"perigee_km":623.95849007691,"apogee_km":630.0151201188,"semimajor_km":7005.1238050979,"source":"CELESTRAK","updated_at":"2026-09-23T09:00:20.407663Z"}}}